Regional Weather Roundup
Issued by NWS Kansas City/Pleasant Hill, MO

Home | Current Version | Previous Version | Graphics & Text | Print | Product List | Glossary Off
Versions: 1 2 3 4 5 6 7 8 9 10 11 12 13 14 15 16 17 18 19 20 21 22 23 24 25 26 27 28 29 30 31 32 33 34 35 36 37 38 39 40 41 42 43 44 45 46 47 48 49 50

000
ASUS43 KEAX 170304
RWREAX

WEATHER ROUNDUP FOR EASTERN KANSAS AND NORTHWEST MISSOURI
NATIONAL WEATHER SERVICE KANSAS CITY/PLEASANT HILL MO
1000 PM CDT WED APR 16 2014

KSZ040-057-103>105-MOZ028-029-037-043-170400-
...KANSAS CITY METROPOLITAN AREA...

CITY           SKY/WX    TMP DP  RH WIND       PRES   REMARKS
K.C. INTL      CLOUDY    55  36  48 NW9       29.99R
K.C. DOWNTOWN  PTCLDY    59  32  36 W9        29.97R
LEES SUMMIT    PTCLDY    56  32  40 S15       29.95R
OLATHE - IXD   PTCLDY    54  33  45 NW9       29.99R
OLATHE - OJC   PTCLDY    54  32  43 SW9       29.96R
LAWRENCE       CLOUDY    54  37  52 N16       30.00R

$$

MOZ001>008-011>017-020>025-030>033-038>040-044>046-053-054-170400-
...NORTHERN AND CENTRAL MISSOURI...

CITY           SKY/WX    TMP DP  RH WIND       PRES   REMARKS
ST. JOSEPH     MOCLDY    48  33  56 NW15      30.03R
MOSBY          FAIR      57  32  38 W6        29.97R
WHITEMAN AFB   CLEAR     53  31  44 S14       29.97R
CLINTON        CLEAR     55  34  44 S9        30.00R
SEDALIA        CLEAR     54  31  41 S14       30.00R
WARSAW         NOT AVBL
MARSHALL         N/A     57  37  47 S12       29.97R
CHILLICOTHE      N/A     58  32  37 S12       29.95R
MOBERLY        CLEAR     52  28  40 SE13      29.99R
KIRKSVILLE     PTCLDY    51  31  46 S15       29.95R

$$

MOZ041-047>049-056>058-063>065-088>090-097-170400-
...EASTERN AND SOUTHERN MISSOURI...

CITY           SKY/WX    TMP DP  RH WIND       PRES   REMARKS
ST. LOUIS INTL PTCLDY    51  26  37 S9        30.14R
SPIRIT OF STL  CLEAR     50  24  36 S5        30.12R
COLUMBIA       CLEAR     51  28  41 S15       30.03R
JEFFERSON CITY CLEAR     50  29  44 SE10      30.05R
MEXICO         CLEAR     48  30  49 S12       30.03R
HANNIBAL       PTCLDY    52  19  28 SE9       30.03S
ROLLA          CLEAR     47  28  47 S13       30.08R
LEBANON        CLEAR     48  28  46 S10       30.08R
OSAGE BEACH    CLEAR     52  27  37 S8        30.07R
SPRINGFIELD    CLEAR     51  29  42 S12       30.06R
BRANSON        CLOUDY    50  28  43 SE6       30.10R
NEVADA         CLEAR     50  34  53 S10       30.01S
JOPLIN         CLEAR     53  31  42 S10       30.03R
WEST PLAINS    PTCLDY    46  28  49 S5        30.11R
MALDEN         PTCLDY    50  37  62 CALM      30.16R

$$

IAZ060-094-KSZ022-034>040-054-083-096-NEZ052-066-093-170400-
...KANSAS...SOUTHEAST NEBRASKA AND IOWA...

CITY           SKY/WX    TMP DP  RH WIND       PRES   REMARKS
TOPEKA         PTCLDY    50  35  56 NW12      30.04R
MANHATTAN      PTCLDY    47  33  58 N9G20     30.05R
EMPORIA        PTCLDY    54  37  52 N13       30.00R
CHANUTE        CLEAR     53  34  48 S10       29.99R
WICHITA        MOCLDY    61  38  42 N16G23    29.99R
OMAHA          CLOUDY    38  30  73 NW22G30   30.04R WCI  27
LINCOLN        CLOUDY    41  27  57 N18       30.09R WCI  32
FALLS CITY     MOCLDY    42  31  64 NW21G30   30.03R WCI  33
LAMONI         CLOUDY    46  34  62 W17G25    29.94R
DES MOINES     CLOUDY    48  37  65 W18       29.89R

$$




USA.gov is the U.S. government's official web portal to all federal, state and local government web resources and services.